K1QL Weather Reports


Display with metric or nautical units.
time (UTC)temp
F
wind
direction
speed
MPH
gust
MPH
rain 1hr
in
rain 24hr
in
rain mn
in
humidity
%
barometer
mb
20260505013826 57 216 3.0 3.0 0.00 0.00 0.00 55 1011.0
20260505013324 58 191 2.0 3.0 0.00 0.00 0.00 54 1011.1
20260505012822 58 206 2.0 6.0 0.00 0.00 0.00 54 1011.1
20260505012320 58 280 0.0 3.0 0.00 0.00 0.00 52 1010.8
20260505011815 58 150 5.0 5.0 0.00 0.00 0.00 52 1010.7
20260505011312 59 205 2.0 5.0 0.00 0.00 0.00 51 1010.6
20260505010808 58 231 3.0 4.0 0.00 0.00 0.00 51 1010.7
20260505010304 59 192 3.0 6.0 0.00 0.00 0.00 50 1010.6
20260505005801 59 329 1.0 3.0 0.00 0.00 0.00 49 1010.5
20260505005258 59 226 3.0 7.0 0.00 0.00 0.00 49 1010.3
20260505004755 59 283 0.0 4.0 0.00 0.00 0.00 49 1010.2
20260505004251 59 15 0.0 3.0 0.00 0.00 0.00 48 1010.2
20260505003749 60 212 3.0 4.0 0.00 0.00 0.00 48 1010.2
20260505003246 60 190 4.0 5.0 0.00 0.00 0.00 48 1009.9
20260505002742 60 197 2.0 7.0 0.00 0.00 0.00 47 1009.8
20260505002240 60 256 7.0 11.0 0.00 0.00 0.00 47 1009.5
20260505001737 60 204 3.0 6.0 0.00 0.00 0.00 46 1009.6
20260505001235 60 66 0.0 5.0 0.00 0.00 0.00 46 1009.3
20260505000731 61 198 2.0 3.0 0.00 0.00 0.00 45 1009.3
20260505000229 61 249 2.0 5.0 0.00 0.00 0.00 45 1009.4
20260504235725 61 254 5.0 6.0 0.00 0.00 0.00 45 1009.2
20260504235221 61 192 3.0 5.0 0.00 0.00 0.00 45 1009.3
20260504234719 62 250 3.0 11.0 0.00 0.00 0.00 44 1009.1
20260504234216 62 183 2.0 5.0 0.00 0.00 0.00 43 1009.0
20260504233712 62 163 2.0 3.0 0.00 0.00 0.00 43 1008.8
20260504233208 63 225 5.0 8.0 0.00 0.00 0.00 42 1008.8
20260504232706 63 169 2.0 5.0 0.00 0.00 0.00 42 1008.8
20260504232203 63 213 2.0 8.0 0.00 0.00 0.00 42 1008.6
20260504231659 64 222 4.0 8.0 0.00 0.00 0.00 41 1008.8
20260504231155 64 280 3.0 6.0 0.00 0.00 0.00 41 1008.5
20260504230652 64 257 4.0 8.0 0.00 0.00 0.00 41 1008.6
20260504230151 64 173 2.0 6.0 0.00 0.00 0.00 41 1008.5
20260504225649 65 223 8.0 10.0 0.00 0.00 0.00 40 1008.6
20260504225144 65 231 4.0 4.0 0.00 0.00 0.00 40 1008.4
20260504224642 65 234 4.0 12.0 0.00 0.00 0.00 39 1008.2
20260504224138 65 224 5.0 5.0 0.00 0.00 0.00 40 1008.2
20260504223636 66 241 3.0 9.0 0.00 0.00 0.00 40 1008.2
20260504223131 66 286 5.0 6.0 0.00 0.00 0.00 39 1008.0
20260504222628 66 216 2.0 7.0 0.00 0.00 0.00 39 1007.8
20260504222125 66 241 4.0 8.0 0.00 0.00 0.00 38 1008.0
20260504221622 67 214 9.0 11.0 0.00 0.00 0.00 38 1008.0
20260504221120 67 282 4.0 9.0 0.00 0.00 0.00 37 1007.9
20260504220616 67 224 6.0 11.0 0.00 0.00 0.00 37 1007.9
20260504220114 68 200 4.0 9.0 0.00 0.00 0.00 36 1007.7
20260504215609 68 230 3.0 7.0 0.00 0.00 0.00 36 1008.0
20260504215107 68 255 7.0 9.0 0.00 0.00 0.00 35 1007.8
20260504214603 68 255 6.0 17.0 0.00 0.00 0.00 35 1007.9
20260504214059 68 279 3.0 7.0 0.00 0.00 0.00 35 1007.8
20260504213556 68 269 2.0 12.0 0.00 0.00 0.00 35 1007.8
20260504213053 68 263 6.0 11.0 0.00 0.00 0.00 34 1007.8
20260504212548 68 227 6.0 11.0 0.00 0.00 0.00 34 1007.8
20260504212046 69 255 3.0 8.0 0.00 0.00 0.00 34 1007.7
20260504211543 69 256 6.0 11.0 0.00 0.00 0.00 33 1007.7
20260504211040 69 197 6.0 13.0 0.00 0.00 0.00 33 1007.5
20260504210537 69 232 4.0 9.0 0.00 0.00 0.00 33 1007.5
20260504210034 69 267 6.0 13.0 0.00 0.00 0.00 31 1007.5
20260504205532 70 19 1.0 8.0 0.00 0.00 0.00 31 1007.5
20260504205029 71 197 6.0 9.0 0.00 0.00 0.00 30 1007.3
20260504204527 70 267 4.0 7.0 0.00 0.00 0.00 30 1007.4
20260504204026 70 258 5.0 9.0 0.00 0.00 0.00 29 1007.4
20260504203523 70 256 2.0 11.0 0.00 0.00 0.00 29 1007.4
20260504203021 71 260 2.0 6.0 0.00 0.00 0.00 29 1007.5
20260504202516 70 233 3.0 9.0 0.00 0.00 0.00 29 1007.3
20260504202013 71 262 6.0 7.0 0.00 0.00 0.00 29 1007.3
20260504201510 70 252 6.0 10.0 0.00 0.00 0.00 29 1007.3
20260504201008 69 22 1.0 6.0 0.00 0.00 0.00 29 1007.4
20260504200504 70 222 10.0 12.0 0.00 0.00 0.00 29 1007.7
20260504200001 70 273 6.0 11.0 0.00 0.00 0.00 28 1007.4
20260504195457 71 294 12.0 13.0 0.00 0.00 0.00 28 1007.8
20260504194954 70 228 4.0 9.0 0.00 0.00 0.00 28 1007.4
20260504194450 70 267 7.0 11.0 0.00 0.00 0.00 28 1007.5
20260504193945 70 163 4.0 7.0 0.00 0.00 0.00 28 1007.7
20260504193443 70 164 5.0 7.0 0.00 0.00 0.00 28 1007.5
20260504192942 70 228 4.0 11.0 0.00 0.00 0.00 27 1007.7
20260504192438 70 180 4.0 13.0 0.00 0.00 0.00 28 1007.7
20260504191937 70 247 7.0 12.0 0.00 0.00 0.00 28 1007.4
20260504191435 70 252 5.0 9.0 0.00 0.00 0.00 28 1007.4
20260504190930 70 206 4.0 11.0 0.00 0.00 0.00 28 1007.5
20260504190426 70 188 6.0 11.0 0.00 0.00 0.00 28 1007.5
20260504185923 70 253 9.0 17.0 0.00 0.00 0.00 27 1007.8
20260504185420 70 288 3.0 12.0 0.00 0.00 0.00 27 1007.9
20260504184916 71 184 6.0 12.0 0.00 0.00 0.00 26 1007.8
20260504184412 70 286 8.0 12.0 0.00 0.00 0.00 27 1008.0
20260504183908 70 263 8.0 17.0 0.00 0.00 0.00 28 1007.9
20260504183405 70 274 3.0 17.0 0.00 0.00 0.00 28 1008.0
20260504182903 70 289 4.0 9.0 0.00 0.00 0.00 27 1008.0
20260504182400 70 241 8.0 11.0 0.00 0.00 0.00 27 1007.9
20260504181856 70 234 2.0 10.0 0.00 0.00 0.00 27 1008.2
20260504181354 70 249 5.0 9.0 0.00 0.00 0.00 26 1008.1
20260504180853 69 269 6.0 13.0 0.00 0.00 0.00 27 1008.5
20260504180351 69 265 3.0 10.0 0.00 0.00 0.00 26 1008.1
20260504175849 70 275 8.0 15.0 0.00 0.00 0.00 26 1008.5
20260504175345 69 246 6.0 9.0 0.00 0.00 0.00 26 1008.1
20260504174844 69 236 9.0 14.0 0.00 0.00 0.00 27 1008.6
20260504174341 69 247 11.0 17.0 0.00 0.00 0.00 27 1008.5
20260504173837 69 280 8.0 11.0 0.00 0.00 0.00 26 1008.6
20260504173334 68 278 12.0 14.0 0.00 0.00 0.00 28 1008.7
20260504172831 68 230 7.0 15.0 0.00 0.00 0.00 27 1008.5
20260504172328 68 278 6.0 19.0 0.00 0.00 0.00 27 1008.6
20260504171824 68 178 5.0 17.0 0.00 0.00 0.00 27 1008.4
20260504171321 68 300 3.0 8.0 0.00 0.00 0.00 28 1008.6
20260504170818 68 276 8.0 13.0 0.00 0.00 0.00 27 1008.4
20260504170315 69 271 6.0 12.0 0.00 0.00 0.00 26 1008.6
20260504160233 66 266 8.0 11.0 0.00 0.00 0.00 29 1009.5
20260504150659 65 249 13.0 14.0 0.00 0.00 0.00 30 1010.0
20260504150155 65 324 4.0 11.0 0.00 0.00 0.00 31 1009.9
20260504141124 62 253 6.0 13.0 0.00 0.00 0.00 34 1010.4
20260504140621 62 235 8.0 13.0 0.00 0.00 0.00 35 1010.7
20260504140117 63 248 9.0 10.0 0.00 0.00 0.00 34 1010.6
20260504130545 59 255 4.0 9.0 0.00 0.00 0.00 39 1011.0
20260504110433 46 233 2.0 2.0 0.00 0.00 0.00 63 1011.6
20260504100355 37 114 1.0 2.0 0.00 0.00 0.00 82 1011.4
20260504081748 39 81 1.0 2.0 0.00 0.00 0.00 78 1011.2
20260504081245 39 105 1.0 1.0 0.00 0.00 0.00 78 1011.1
20260504080741 40 103 0.0 2.0 0.00 0.00 0.00 78 1011.0
20260504080237 40 93 1.0 2.0 0.00 0.00 0.00 78 1011.1
20260504070205 39 69 1.0 1.0 0.00 0.00 0.00 78 1010.9
20260504060126 36 102 0.0 1.0 0.00 0.00 0.00 79 1010.8
20260504050554 36 121 0.0 1.0 0.00 0.00 0.00 80 1011.0
20260504045548 35 112 1.0 1.0 0.00 0.00 0.00 83 1011.0
20260504045043 35 150 0.0 1.0 0.00 0.00 0.00 84 1011.1
20260504044541 35 86 2.0 2.0 0.00 0.00 0.00 84 1011.2
20260504044037 35 113 0.0 1.0 0.00 0.00 0.00 84 1011.2
20260504043534 35 107 0.0 1.0 0.00 0.00 0.00 85 1011.0
20260504043032 35 121 0.0 1.0 0.00 0.00 0.00 85 1011.1
20260504042529 35 135 0.0 1.0 0.00 0.00 0.00 86 1011.1
20260504042026 35 94 0.0 1.0 0.00 0.00 0.00 85 1010.9
20260504041522 35 93 0.0 2.0 0.00 0.00 0.00 85 1010.9
20260504041018 35 124 0.0 1.0 0.00 0.00 0.00 86 1010.8
20260504040516 35 80 0.0 1.0 0.00 0.00 0.00 85 1010.8
20260504040012 35 72 1.0 2.0 0.00 0.00 0.00 85 1010.8
20260504035509 35 135 0.0 1.0 0.00 0.00 0.00 85 1010.8
20260504035005 35 125 0.0 1.0 0.00 0.00 0.00 85 1010.6
20260504034503 35 66 0.0 0.0 0.00 0.00 0.00 85 1010.7
20260504034000 35 89 0.0 1.0 0.00 0.00 0.00 85 1010.6
20260504033457 35 150 1.0 1.0 0.00 0.00 0.00 85 1010.6
20260504032955 35 113 0.0 1.0 0.00 0.00 0.00 85 1010.6
20260504032451 34 104 0.0 0.0 0.00 0.00 0.00 85 1010.7
20260504031948 34 80 0.0 1.0 0.00 0.00 0.00 84 1010.5
20260504031445 34 55 0.0 2.0 0.00 0.00 0.00 83 1010.6
20260504030942 35 56 1.0 1.0 0.00 0.00 0.00 83 1010.6
20260504030439 35 68 0.0 1.0 0.00 0.00 0.00 83 1010.4
20260504025935 35 128 0.0 0.0 0.00 0.00 0.00 82 1010.4
20260504025432 35 72 0.0 0.0 0.00 0.00 0.00 81 1010.4
20260504024929 35 22 0.0 1.0 0.00 0.00 0.00 80 1010.5
20260504024426 35 66 1.0 2.0 0.00 0.00 0.00 80 1010.3
20260504023923 35 102 0.0 0.0 0.00 0.00 0.00 79 1010.3
20260504023419 35 124 0.0 0.0 0.00 0.00 0.00 78 1010.4
20260504022915 36 89 0.0 1.0 0.00 0.00 0.00 77 1010.2
20260504022412 36 93 0.0 1.0 0.00 0.00 0.00 76 1010.3
20260504021908 36 81 0.0 1.0 0.00 0.00 0.00 76 1010.4
20260504021406 37 96 1.0 2.0 0.00 0.00 0.00 75 1010.3
20260504020903 37 95 1.0 1.0 0.00 0.00 0.00 74 1010.3
20260504020359 37 89 0.0 0.0 0.00 0.00 0.00 74 1010.2
20260504015855 37 103 0.0 0.0 0.00 0.00 0.00 72 1010.1
20260504015351 38 89 0.0 1.0 0.00 0.00 0.00 71 1010.1
20260504014848 38 79 1.0 1.0 0.00 0.00 0.00 70 1010.2
20260504014343 39 44 0.0 1.0 0.00 0.00 0.00 70 1010.0